Wind_Speed
5 5 5 5 5 5 5 5 5 6 6 6 5 5 4 3 3 2 1 1 1 2 3 3 4 4 4 4 4 5 5 5 5 5 5 5 6 7 8 8 8 9 10
7 6 6 6 6 6 6 6 6 7 7 7 7 6 5 5 4 4 3 2 2 1 0 1 2 2 3 3 3 3 3 3 4 4 5 5 5 6 7 8 9 9 11
8 8 8 7 7 7 7 8 8 8 9 8 8 7 7 6 6 6 5 5 4 3 2 1 1 0 1 1 1 1 1 2 2 3 4 4 5 6 7 8 9 10 11
9 9 9 9 9 9 9 9 9 10 10 10 9 9 9 8 8 7 7 7 6 5 5 4 3 2 2 1 1 1 1 0 1 1 2 3 4 5 7 8 8 9 9
10 10 10 10 10 10 10 11 11 11 11 11 11 10 10 10 10 9 9 8 8 7 7 6 5 4 4 3 3 2 2 2 1 1 1 2 4 5 6 7 7 8 8
10 10 10 10 11 11 11 12 12 12 12 12 12 12 12 12 11 11 11 10 10 9 9 8 7 7 6 5 5 4 4 3 3 2 2 2 3 4 5 6 7 7 7
10 10 11 12 12 12 12 13 13 13 14 14 14 14 14 13 13 13 13 12 12 12 11 11 10 9 8 7 7 7 6 5 4 5 4 3 3 4 5 6 6 6 6
11 12 13 13 13 13 14 15 15 15 15 15 16 15 15 15 15 15 15 14 14 14 13 13 12 11 10 9 9 8 8 7 6 6 5 5 5 5 5 5 6 6 6
13 14 13 14 14 15 15 16 16 17 17 17 18 18 17 17 17 17 17 16 16 16 15 15 14 13 13 12 11 11 11 10 9 8 8 8 7 7 6 6 7 7 7
15 15 15 16 16 16 16 17 17 18 18 19 19 19 19 19 19 19 19 18 18 18 17 17 16 15 14 14 14 14 13 13 12 11 10 10 9 9 9 8 8 8 8
16 16 16 16 16 17 17 17 18 19 19 20 21 21 21 21 22 22 22 21 21 20 19 19 18 17 17 16 16 16 16 16 14 13 12 13 12 12 11 11 10 10 10
18 18 18 18 18 18 18 18 19 20 20 20 21 24 24 23 23 23 23 24 23 23 22 21 20 20 19 19 18 18 18 18 17 16 15 15 15 15 14 14 13 12 12
19 19 19 20 20 21 20 20 21 21 21 21 22 23 23 23 22 22 23 24 24 24 24 24 23 22 21 21 20 20 20 20 19 18 18 18 17 17 17 16 16 15 14
20 20 20 21 22 22 23 23 21 21 22 22 23 22 23 22 21 21 23 23 24 24 25 25 25 24 23 23 22 22 22 21 21 21 20 20 18 19 19 19 18 17 17
21 22 23 23 23 24 25 24 23 23 24 24 23 23 22 23 22 22 23 24 25 24 24 25 26 26 25 23 23 23 23 23 23 22 22 21 20 20 20 21 21 21 19
22 22 23 24 24 25 26 26 25 24 25 24 24 23 22 22 24 23 23 24 24 24 24 25 26 26 27 26 24 24 25 25 25 24 23 23 23 23 23 23 23 23 22
24 25 26 25 25 26 25 26 25 24 24 24 23 22 22 22 22 23 23 23 24 24 25 26 27 27 27 27 27 26 26 26 26 25 25 24 25 25 26 25 25 25 25
24 25 26 27 26 26 26 25 24 24 24 23 22 22 23 23 22 22 22 22 23 25 26 26 27 27 26 26 27 27 28 28 28 28 27 27 27 27 28 28 28 27 27
23 24 25 25 25 24 23 23 23 22 22 22 22 22 23 22 22 22 22 23 24 24 24 25 26 27 27 28 28 28 29 30 29 29 28 27 27 28 29 30 30 29 29
21 22 22 22 20 20 20 21 21 21 22 22 22 22 23 23 23 24 24 25 25 25 25 25 26 28 28 27 28 28 28 29 30 30 29 28 27 28 29 31 31 31 31
18 18 19 20 18 18 18 19 21 22 22 22 22 22 23 24 24 25 25 25 26 26 26 27 27 28 28 28 28 29 29 30 30 30 30 29 29 30 30 31 32 32 32
17 17 18 18 18 18 19 20 20 21 21 21 22 22 23 24 24 24 25 25 26 27 27 28 28 29 29 29 29 30 31 30 31 31 31 31 30 31 31 32 33 33 34
16 17 17 17 17 18 20 20 21 21 21 21 21 22 22 23 24 24 24 25 26 27 28 28 29 30 30 31 31 31 31 32 32 33 33 33 32 32 32 33 33 34 34
16 17 17 17 18 19 20 20 20 20 21 21 21 21 21 22 22 23 24 25 26 27 28 29 30 31 32 33 33 33 33 33 33 34 34 34 34 34 34 34 34 35 35
18 18 18 18 19 19 19 20 20 20 21 21 21 21 22 22 23 24 25 26 27 28 29 30 31 32 33 34 35 35 36 36 35 35 35 35 36 36 35 35 35 36 36
19 19 19 19 19 20 20 20 21 21 21 21 22 22 23 23 24 24 25 26 27 28 29 30 32 32 33 34 35 36 36 37 38 38 37 36 37 37 37 37 37 37 37
Wind_Direction
308 303 298 295 291 286 284 289 297 296 294 294 296 299 303 307 304 301 313 2 47 67 73 74 72 72 68 63 65 69 75 83 83 86 91 93 94 94 95 97 104 111 111
310 309 304 300 294 288 286 287 291 293 290 288 287 287 289 293 291 287 285 283 280 280 13 69 75 73 70 61 57 59 68 79 84 85 87 91 98 101 100 98 105 112 115
305 304 300 298 296 291 287 287 286 286 286 284 281 280 279 280 280 280 278 278 275 270 267 274 286 27 62 57 46 31 37 62 79 88 93 98 105 109 107 105 108 111 114
302 299 298 296 294 291 288 287 285 284 283 281 279 277 276 275 272 271 273 274 273 272 272 271 268 264 263 274 307 316 299 318 69 96 105 116 117 117 116 114 114 117 119
299 295 297 294 292 291 289 287 286 283 280 278 278 275 274 273 270 269 269 270 269 270 273 273 268 263 260 262 269 274 270 263 249 213 175 146 134 129 126 124 124 125 125
299 294 299 299 296 294 293 291 288 282 279 277 276 276 274 271 268 267 269 268 267 267 269 272 269 263 259 260 262 264 263 256 245 239 233 178 154 148 143 138 135 131 128
301 299 301 301 300 299 296 293 290 284 280 278 275 274 273 271 268 267 268 269 267 268 268 267 267 264 259 260 259 257 257 256 250 241 234 226 198 176 167 159 150 146 142
301 299 301 303 300 296 294 292 288 282 280 279 276 273 270 269 268 266 267 268 268 268 267 266 266 263 261 260 259 257 254 254 250 248 243 236 224 207 194 180 172 167 163
306 302 301 303 302 298 296 294 289 283 280 279 276 273 270 268 266 266 266 267 267 265 264 263 263 263 261 259 258 257 256 255 252 248 246 244 236 225 214 203 192 185 184
306 303 298 298 297 297 296 292 290 285 280 278 276 271 268 266 264 264 265 266 265 263 261 259 259 259 258 258 258 258 257 256 254 249 246 245 242 234 226 218 210 201 198
302 301 297 296 297 297 295 292 290 287 283 279 275 270 267 266 264 262 263 262 261 261 260 258 257 256 255 256 259 260 257 256 254 252 250 246 243 238 232 226 220 214 209
298 300 299 297 299 297 296 294 292 287 283 283 279 271 267 267 264 261 261 260 260 259 258 257 256 255 256 257 259 260 258 256 254 251 248 248 243 240 235 230 225 220 217
295 297 298 298 297 296 296 295 292 287 285 285 284 279 273 269 270 264 260 257 258 259 256 254 254 254 255 257 259 259 257 256 255 251 251 251 246 241 236 232 229 225 221
292 293 295 294 295 295 294 292 290 286 285 286 286 281 277 273 272 271 268 264 260 259 254 251 252 253 253 254 257 257 256 255 254 251 251 250 249 245 238 233 230 228 225
293 291 291 293 292 291 291 292 291 287 285 284 283 281 280 276 273 273 271 270 267 263 256 251 252 254 252 253 255 256 256 256 255 251 251 251 249 245 239 234 231 230 229
292 291 291 290 291 291 291 290 290 287 285 285 284 282 282 280 275 274 272 272 270 265 261 258 256 255 254 253 255 256 255 254 255 255 254 252 250 244 241 236 232 230 230
290 291 292 290 290 291 291 290 290 287 287 286 283 282 283 284 277 272 271 271 270 267 261 260 259 257 256 255 255 256 256 254 255 254 253 251 249 244 240 237 235 232 231
290 291 293 292 290 290 290 289 288 286 286 286 284 284 283 281 281 275 272 273 271 269 267 263 259 259 259 258 256 257 255 255 255 253 254 251 247 243 239 238 237 234 232
290 291 293 294 293 291 290 290 290 289 288 287 288 286 283 281 280 277 274 274 273 273 271 267 263 259 260 259 257 257 256 255 253 252 252 251 248 243 240 237 237 236 234
293 294 295 296 294 293 294 293 292 291 289 289 289 288 284 283 281 279 277 275 273 273 272 269 267 264 262 260 258 258 255 252 252 252 252 251 246 244 242 239 238 236 235
302 301 300 298 298 296 297 297 295 294 292 291 289 287 285 283 282 280 278 276 275 274 272 269 267 265 263 262 259 258 256 253 252 252 252 250 247 245 244 242 241 238 236
307 307 309 303 303 303 303 302 300 298 296 293 291 290 287 285 283 281 279 277 276 274 272 270 268 267 264 262 260 258 255 255 253 252 251 249 248 245 245 243 240 239 237
317 317 317 313 309 308 306 304 302 300 298 296 294 291 289 287 285 283 281 279 277 275 273 271 269 268 266 263 260 258 255 255 254 252 251 250 248 247 246 245 241 239 237
329 329 327 323 318 315 313 311 307 305 303 302 299 296 292 289 287 285 283 281 279 276 273 271 270 268 266 264 262 259 257 256 254 253 252 250 249 249 247 244 241 239 237
336 333 331 328 325 322 320 317 314 311 307 304 302 299 297 294 292 289 287 285 283 279 276 273 271 269 267 265 262 260 258 256 255 253 252 251 249 249 247 243 241 239 238
337 336 335 332 330 327 324 321 317 314 311 308 305 302 300 297 294 292 289 287 285 282 280 277 274 271 268 265 263 261 259 257 255 254 252 250 250 248 246 244 242 240 239
Height
5906 5905 5905 5906 5905 5905 5905 5905 5904 5904 5904 5903 5903 5902 5902 5901 5901 5900 5900 5899 5899 5899 5899 5898 5898 5898 5898 5898 5898 5897 5897 5897 5897 5897 5898 5898 5898 5898 5899 5899 5900 5900 5901
5905 5905 5905 5905 5905 5905 5904 5904 5904 5904 5903 5903 5903 5902 5902 5901 5901 5901 5900 5900 5899 5899 5899 5899 5899 5899 5899 5899 5898 5898 5898 5898 5898 5899 5899 5899 5899 5900 5900 5901 5901 5902 5903
5904 5904 5904 5904 5904 5904 5904 5903 5903 5903 5902 5902 5902 5902 5901 5901 5901 5900 5900 5900 5899 5899 5899 5899 5899 5899 5899 5899 5899 5899 5899 5899 5899 5899 5900 5900 5900 5901 5901 5902 5903 5904 5904
5903 5903 5903 5902 5903 5902 5902 5902 5902 5902 5901 5901 5901 5901 5901 5900 5900 5900 5900 5899 5899 5899 5899 5899 5899 5899 5899 5899 5899 5899 5900 5900 5900 5900 5900 5900 5901 5902 5903 5903 5904 5905 5906
5901 5901 5901 5901 5901 5901 5901 5901 5900 5900 5900 5900 5900 5900 5900 5899 5899 5899 5899 5899 5899 5899 5899 5899 5899 5899 5899 5899 5899 5899 5900 5900 5900 5901 5900 5901 5902 5903 5903 5904 5905 5906 5907
5900 5899 5899 5899 5899 5899 5899 5899 5899 5899 5899 5898 5898 5898 5898 5898 5898 5898 5898 5897 5897 5897 5898 5898 5898 5898 5898 5899 5899 5899 5900 5900 5901 5901 5901 5901 5902 5903 5904 5905 5906 5907 5908
5898 5897 5897 5897 5897 5897 5897 5897 5897 5897 5897 5896 5896 5896 5896 5896 5896 5896 5896 5896 5896 5896 5896 5896 5897 5897 5897 5898 5898 5898 5899 5900 5900 5901 5901 5902 5903 5904 5905 5906 5907 5908 5909
5896 5896 5895 5895 5895 5895 5895 5894 5894 5894 5894 5894 5894 5894 5894 5894 5894 5894 5894 5894 5894 5894 5894 5895 5895 5896 5896 5897 5897 5897 5898 5899 5900 5900 5900 5902 5903 5904 5905 5906 5907 5908 5910
5893 5893 5893 5893 5893 5892 5892 5892 5891 5891 5891 5891 5891 5891 5891 5891 5891 5891 5891 5891 5891 5892 5892 5893 5893 5894 5894 5895 5895 5896 5897 5897 5898 5899 5900 5901 5902 5903 5904 5906 5907 5908 5910
5891 5891 5891 5890 5890 5889 5889 5888 5888 5887 5887 5887 5887 5887 5887 5887 5887 5887 5888 5888 5888 5888 5889 5890 5890 5891 5892 5892 5893 5894 5894 5895 5896 5898 5899 5900 5901 5902 5904 5905 5906 5908 5909
5887 5887 5887 5887 5885 5886 5885 5885 5884 5883 5883 5883 5883 5883 5883 5883 5883 5883 5884 5884 5884 5885 5885 5886 5887 5888 5888 5889 5890 5891 5892 5893 5894 5896 5897 5898 5899 5901 5902 5904 5905 5907 5909
5884 5884 5884 5883 5882 5882 5881 5881 5880 5879 5879 5879 5878 5878 5878 5878 5878 5879 5879 5879 5880 5880 5881 5882 5883 5884 5885 5886 5887 5888 5889 5890 5891 5893 5894 5895 5897 5898 5900 5902 5904 5906 5907
5881 5881 5880 5880 5879 5878 5878 5877 5876 5875 5874 5874 5873 5873 5873 5873 5873 5873 5873 5873 5874 5875 5876 5878 5879 5880 5881 5882 5883 5884 5885 5886 5888 5889 5891 5892 5893 5895 5897 5900 5902 5904 5906
5877 5877 5877 5877 5876 5875 5874 5873 5872 5871 5870 5869 5868 5867 5867 5867 5867 5868 5867 5868 5869 5869 5870 5872 5873 5875 5876 5878 5879 5880 5881 5882 5883 5885 5886 5887 5889 5892 5894 5897 5899 5901 5903
5874 5873 5873 5872 5871 5870 5869 5868 5867 5866 5865 5864 5864 5863 5862 5862 5862 5862 5862 5863 5863 5864 5865 5866 5868 5869 5870 5872 5874 5875 5876 5877 5879 5880 5882 5883 5886 5888 5891 5893 5896 5898 5900
5869 5868 5868 5868 5866 5865 5864 5863 5862 5861 5860 5859 5858 5858 5858 5857 5857 5857 5857 5857 5857 5858 5859 5861 5862 5863 5865 5866 5868 5870 5871 5873 5874 5875 5877 5879 5881 5884 5887 5889 5891 5894 5897
5866 5865 5864 5863 5861 5860 5859 5858 5857 5856 5855 5854 5853 5853 5852 5852 5852 5852 5852 5852 5852 5853 5854 5855 5855 5856 5858 5860 5862 5864 5866 5867 5869 5870 5872 5874 5876 5878 5881 5884 5887 5889 5892
5862 5861 5860 5858 5857 5855 5854 5853 5852 5851 5850 5849 5848 5848 5847 5847 5847 5846 5847 5847 5847 5848 5848 5849 5850 5850 5852 5853 5855 5857 5859 5861 5863 5864 5866 5869 5871 5873 5876 5879 5882 5885 5887
5858 5857 5855 5853 5852 5850 5849 5848 5847 5846 5845 5844 5843 5843 5842 5841 5841 5841 5841 5841 5841 5842 5842 5843 5844 5845 5846 5847 5848 5850 5852 5855 5856 5858 5860 5862 5864 5867 5869 5872 5876 5879 5882
5855 5853 5851 5849 5847 5846 5845 5843 5842 5841 5840 5839 5838 5837 5836 5836 5836 5835 5835 5835 5835 5836 5836 5837 5838 5838 5839 5840 5841 5843 5845 5847 5850 5852 5854 5856 5858 5860 5862 5865 5869 5872 5876
5851 5849 5847 5845 5844 5842 5841 5839 5838 5836 5835 5834 5833 5832 5831 5831 5830 5830 5830 5830 5829 5830 5830 5830 5831 5832 5833 5834 5835 5836 5838 5840 5842 5845 5847 5849 5851 5854 5856 5859 5863 5866 5869
5847 5845 5843 5841 5840 5838 5836 5835 5833 5831 5830 5829 5828 5827 5826 5825 5824 5824 5823 5823 5823 5823 5823 5823 5823 5824 5825 5826 5828 5829 5831 5833 5835 5837 5839 5841 5844 5847 5850 5852 5855 5859 5862
5843 5842 5840 5837 5835 5834 5832 5830 5829 5827 5825 5824 5823 5821 5820 5819 5818 5817 5817 5816 5816 5816 5816 5816 5816 5816 5817 5818 5819 5821 5823 5825 5827 5829 5831 5834 5837 5839 5842 5844 5847 5851 5855
5841 5839 5837 5834 5832 5830 5828 5826 5824 5822 5820 5819 5817 5816 5815 5813 5812 5811 5810 5809 5809 5808 5808 5808 5808 5809 5809 5810 5811 5812 5814 5816 5818 5821 5823 5825 5828 5831 5834 5836 5840 5843 5847
5838 5836 5834 5831 5829 5826 5824 5822 5819 5817 5815 5813 5812 5810 5809 5808 5806 5805 5804 5803 5802 5801 5800 5800 5800 5800 5800 5801 5802 5803 5804 5806 5808 5811 5814 5817 5819 5822 5825 5828 5832 5835 5839
5836 5833 5831 5828 5826 5823 5820 5818 5815 5813 5811 5809 5807 5805 5803 5802 5800 5799 5797 5796 5794 5793 5792 5791 5791 5791 5791 5791 5792 5793 5794 5797 5799 5802 5805 5807 5809 5812 5815 5819 5822 5826 5830